This demonstration page uses our WeatherBlox Daily Observations layout. Learn more.

Left ArrowRight Arrow

Hourly Observations for June 25, 2019

Temp ( °F °C ) Dew Point ( °F °C ) Humidity (%) Winds ( mph kmh ) Pressure ( in mb ) Visibility ( mi km ) Precip ( " mm )
12:53 am 00:53 Cloudy 71 21.7 67 19.4 87 87 SW 6 9 29.83 1010 10 16 N/A
1:53 am 01:53 Clear 69 20.6 65 18.3 87 87 VRB 5 7 29.85 1011 10 16 N/A
2:53 am 02:53 Clear 67 19.4 65 18.3 93 93 WSW 5 7 29.86 1011 10 16 N/A
3:53 am 03:53 Clear 66 18.9 65 18.3 96 96 VRB 3 6 29.88 1012 10 16 N/A
4:53 am 04:53 Clear 65 18.3 64 17.8 97 97 W 3 6 29.89 1012 10 16 N/A
5:53 am 05:53 Clear 64 17.8 64 17.8 100 100 WSW 3 6 29.91 1013 10 16 N/A
6:53 am 06:53 Sunny 65 18.3 64 17.8 97 97 WSW 3 6 29.94 1014 10 16 N/A
7:53 am 07:53 Sunny 68 20 64 17.8 87 87 W 6 9 29.96 1015 10 16 N/A
8:53 am 08:53 Sunny 71 21.7 64 17.8 79 79 WSW 6 9 29.98 1015 10 16 N/A
9:53 am 09:53 Sunny 74 23.3 65 18.3 74 74 WSW 7 11 30.00 1016 10 16 N/A
10:53 am 10:53 Sunny 77 25 64 17.8 64 64 SW 6 9 30.00 1016 10 16 N/A
11:53 am 11:53 Sunny 79 26.1 64 17.8 60 60 WSW 8 13 30.01 1016 10 16 N/A
12:53 pm 12:53 Sunny 81 27.2 61 16.1 51 51 VRB 5 7 30.02 1017 10 16 N/A
1:53 pm 13:53 Partly Cloudy 81 27.2 60 15.6 49 49 VRB 6 9 30.02 1017 10 16 N/A
2:53 pm 14:53 Mostly Sunny 82 27.8 60 15.6 47 47 W 9 15 30.01 1016 10 16 N/A
3:53 pm 15:53 Sunny 83 28.3 61 16.1 48 48 WSW 9 15 30.00 1016 10 16 N/A
4:53 pm 16:53 Sunny 83 28.3 62 16.7 49 49 W 8 13 29.99 1016 10 16 N/A
5:53 pm 17:53 Sunny 83 28.3 60 15.6 46 46 WSW 8 13 29.99 1016 10 16 N/A
6:53 pm 18:53 Sunny 82 27.8 60 15.6 47 47 SSW 6 9 29.98 1015 10 16 N/A
7:53 pm 19:53 Sunny 80 26.7 60 15.6 51 51 VRB 6 9 30.00 1016 10 16 N/A
8:53 pm 20:53 Partly Cloudy 77 25 61 16.1 58 58 SW 5 7 30.00 1016 10 16 N/A
9:53 pm 21:53 Clear 69 20.6 66 18.9 90 90 N N/A 30.01 1016 10 16 N/A
10:53 pm 22:53 Clear 67 19.4 65 18.3 93 93 N N/A 30.02 1017 10 16 N/A
11:53 pm 23:53 Clear 66 18.9 64 17.8 93 93 N N/A 30.04 1017 10 16 N/A

Powered by AerisWeather